Location: Unspecified
(50.7693°N, 0.0000°E)
Time: 06:32:57
(UTC+00:00)

Transit 2A - Pass Details

Date: 17 August 2020
Orbit: 591 x 967 km, 66.7° (Epoch: 20 September)

Event Time Altitude Azimuth Distance (km) Brightness Sun altitude
Rises 03:45:34 0° 319° (NW) 3,665 9.5 -9.9°
Reaches altitude 10° 03:48:19 10° 313° (NW) 2,702 8.7 -9.5°
Maximum altitude 03:54:09 40° 246° (WSW) 1,350 6.8 -8.8°
Drops below altitude 10° 03:59:39 10° 179° (S) 2,541 8.4 -8.1°
Sets 04:02:11 0° 172° (S) 3,423 9.1 -7.7°
